This is the latest recevied weather packets stored in our database for station/object N3FAA. If no packets are shown the sender has not sent any weather packets the latest 10 day(s).
| Time | Temp. | Humidity | Pressure | Rain* | Wind** | Luminosity | Snow |
|---|---|---|---|---|---|---|---|
| 1778033240 | 14.44° C | 55% | 1010.7 hPa | 0 mm | - | 29 W/m² | - |
| 1778032939 | 15° C | 55% | 1010.4 hPa | 0 mm | - | 35 W/m² | - |
| 1778032636 | 15° C | 55% | 1010.7 hPa | 0 mm | - | 40 W/m² | - |
| 1778032333 | 15° C | 56% | 1010.5 hPa | 0 mm | - | 46 W/m² | - |
| 1778032030 | 15° C | 56% | 1010.3 hPa | 0 mm | - | 58 W/m² | - |
| 1778031726 | 15° C | 56% | 1010.2 hPa | 0 mm | - | 82 W/m² | - |
| 1778031424 | 15° C | 57% | 1010.1 hPa | 0 mm | - | 96 W/m² | - |
| 1778031121 | 15° C | 56% | 1010.3 hPa | 0 mm | - | 111 W/m² | - |
| 1778030817 | 15.56° C | 55% | 1010.4 hPa | 0 mm | - | 127 W/m² | - |
| 1778030514 | 15.56° C | 54% | 1010.3 hPa | 0 mm | - | 136 W/m² | - |
| 1778030212 | 16.11° C | 53% | 1010.4 hPa | 0 mm | - | 154 W/m² | - |
| 1778029907 | 15.56° C | 53% | 1010.4 hPa | 0 mm | - | 171 W/m² | - |
| 1778029606 | 16.11° C | 52% | 1010.1 hPa | 0 mm | - | 177 W/m² | - |
| 1778029303 | 16.11° C | 52% | 1010.1 hPa | 0 mm | - | 187 W/m² | - |
| 1778029000 | 16.67° C | 50% | 1010.3 hPa | 0 mm | - | 200 W/m² | - |
| 1778028697 | 16.67° C | 50% | 1010.1 hPa | 0 mm | - | 153 W/m² | - |
| 1778028393 | 16.11° C | 51% | 1010 hPa | 0 mm | - | 266 W/m² | - |
| 1778028090 | 16.67° C | 50% | 1010.1 hPa | 0 mm | - | 298 W/m² | - |
| 1778027786 | 16.67° C | 49% | 1010 hPa | 0 mm | - | 315 W/m² | - |
| 1778027483 | 16.67° C | 50% | 1009.9 hPa | 0 mm | - | 359 W/m² | - |
| 1778027179 | 16.67° C | 49% | 1009.8 hPa | 0 mm | - | 346 W/m² | - |
| 1778026875 | 16.67° C | 50% | 1009.9 hPa | 0 mm | - | 357 W/m² | - |
| 1778026571 | 17.22° C | 48% | 1009.8 hPa | 0 mm | - | 377 W/m² | - |
| 1778026268 | 17.22° C | 47% | 1009.8 hPa | 0 mm | - | 396 W/m² | - |
| 1778025966 | 17.22° C | 49% | 1009.4 hPa | 0 mm | - | 411 W/m² | - |
* Rain latest hour (hover to see other rain measurements)
** Current wind speed in m/s (hover to see current wind gust speed)